OBJECT AV, 57217

Orbit data source: Space-Track

You're viewing an Uncataloged Satellite

Recently launched and/or uncataloged satellites may have evolving metadata. Metadata may include but not limited to: Owner, Maufacturer, Bus, Motor, and Mission.

OBJECT AV, 57217 is a satellite in SSO that was launched on Tue, 27 Jun 2023 UTC via a SOYUZ-2-1B launch vehicle from the Vostochny Cosmodrome (VOSTO). Unknown objects in Earth's orbit typically refer to objects detected orbiting the Earth but have not yet been identified or cataloged. These objects could be anything from previously untracked satellites, spent rocket stages, debris from satellite collisions, or even natural meteoroids temporarily captured by Earth's gravity.

Loading next visibility...
Identifier
57217, 2023-091AV
Orbit
SSO
Country
Flag of TBDTBD
Related business
Flag of RUKuzbass State Technical University (KuzGTU) (RU)
Manufacturer
Sputniks
Mission
Operational Amateur Technology
Bus & Motor
CUBESAT 3U, Unknown motor
Mass
3.4 kg wet, 3.4 kg dry
Launch date (UTC)
2023-06-27 (3 years ago)
Launch vehicle
SOYUZ-2-1B
Launch site
Vostochny Cosmodrome (VOSTO)
Object type
Unknown
Shape & HBR
Box, 0.1 m
Radar Cross Section
0.035 m², Small (<0.1 m²)

Expand to show TLE details & history
Last TLE update: 6 hours ago

TLE from 6 hours ago
0 OBJECT AV
1 57217U 23091AV  26104.55782122  .00005899  00000-0  21550-3 0  9999
2 57217  97.5119 168.4459 0009993 326.9518  33.1096 15.28455980154657
Epoch: 2026-04-14T13:23Z
TLE epoch observation values (Epoch: 2026-04-14T13:23:15.753Z)
Latitude
-0°
Longitude
124.89791°
Altitude
477.786 km
Speed
7.63 km/s
True Right ascension
11h 13m 47s
True Declination
0° 00' 00"
Sunlit
Object was in full shadow at epoch
Visualization orbit readout
Latitude
Unknown
Longitude
Unknown
Altitude
Unknown
Speed
Unknown
Apparent Right ascension
Unknown
Apparent Declination
Unknown
Sunlit
N/A
Visualization observer readout
Local Sidereal Time
02:20:22
Azimuth
Unknown
Elevation
Unknown
Doppler factor
Unknown
Orbital elements
Apogee altitude
484.237 km
Perigee altitude
470.536 km
Semi-major axis
6,855.523 km
Eccentricity
0.001
Inclination
97.5119°
RAAN
168.4459°
Arg. of periapsis
326.9518°
True anomaly
33.17222°
Mean anomaly
33.1096°
Eccentric anomaly
33.1409°
Mean motion
3.82369 °/min
Orbital period
94.15 mins
BSTAR
0.0002155
Loading maneuver chart data...
Computing Atmospheric mass density...
Loading historical data...
Loading historical data...
Loading historical data...
Loading historical data...
Loading historical data...
Loading historical data...
Loading historical data...

Documentation

Showing up to 5 results
|